Погода в Михалкове

Россия / Ивановская область     56°53′35″N   41°32′07″E
темп.,
°C
ветер,
м/с
пор.,
м/с
влажн.,
%
обл.,
%
осадки,
мм/ч
давл.,
гПа
погр.,
м
11 мая, вт
вт1100:00+5св35865 0.0 102869
03:00+4св36945 0.0 1029106
06:00+6св410844 0.0 1029308
09:00+12св57550 0.0 1029635
12:00+16всв56420 0.0 1028878
15:00+18всв45460 0.0 1028920
18:00+17всв36630 0.0 1028412
21:00+12всв35790 0.0 102877
12 мая, ср
ср1200:00+11в35920 0.0 102991
03:00+11в239547 0.0 102860
06:00+12св249266 0.0 1028127
09:00+17всв477397 0.0 1028492
12:00+22всв685981 0.1 10261076
15:00+22вюв6116299 2.3 10251704
18:00+20юв4106971 0.6 1024659
21:00+17юв4116799 0.6 1024489
13 мая, чт
чт1300:00+15вюв397499 0.0 1024265
03:00+13вюв3985100 0.0 1024182
06:00+14вюв3108380 0.0 1023328
09:00+18юв496949 0.0 1022755
12:00+22вюв685499 0.1 10201601
15:00+19вюв61262100 1.1 10191112
18:00+15вюв41091100 0.6 1018517
21:00+13ю369891 1.8 1018195
14 мая, пт
пт1400:00+12ююз2498100 0.0 101893
03:00+10зюз229826 0.0 101927
06:00+12зюз11921 0.0 102081
09:00+17ю227265 0.0 1019507
12:00+20ююв2355100 0.0 1019973
15:00+21юв345024 0.0 10191171
18:00+20юв376594 0.0 1017297
21:00+15вюв3483100 0.0 101746
15 мая, сб
сб1500:00+15в3494100 1.1 101667
03:00+15вюв3897100 9.3 1015197
06:00+16вюв41095100 0.0 1014284
09:00+18юв249299 0.9 1014279
12:00+24юв586598 0.0 1012948
15:00+25ююв71452100 0.0 10101528
18:00+22ю6136138 0.0 1010897
21:00+18ююв412782 0.1 1010362